カタログに戻る

THORAD DELTA 1 DEB

運用中SSO
NORAD 8166·DEBRIS·🇺🇸 United States

打ち上げ Nov 15, 1974 から Vandenberg Space Force Base

Loading…

次のパス (今後24時間)

TLE

最新Source: Space-Track

元期: Sep 13, 2026, 22:42 UTC

1  8166U 74089AG  26256.94628366  .00000021  00000-0  42887-3 0  9999
2  8166 102.0289 254.7390 0038158 189.4338 198.1262 12.51681507365061

AllMySatでTHORAD DELTA 1 DEBをリアルタイム追跡

Download on the App Store